Location: *
(46.4000°N, 12.6667°E)
Time: 13:58:28
(UTC+00:00)

Cosmos 1763 Rocket - Pass Details

Date: 09 April 2020
Orbit: 734 x 779 km, 74.0° (Epoch: 02 June)

Event Time Altitude Azimuth Distance (km) Brightness Sun altitude
Rises 19:42:29 0° 341° (NNW) 3,227 7.6 -18.6°
Reaches altitude 10° 19:44:55 10° 345° (NNW) 2,290 6.7 -19.0°
Maximum altitude 19:50:01 56° 64° (ENE) 889 3.6 -19.7°
Enters shadow 19:51:28 41° 117° (ESE) 1,071 3.7 -19.9°
